Tracking 23885 objects as of 28-Nov-2021
HD Live streaming from Space Station
objects crossing your sky now

SPACEBEE-52

Track SPACEBEE-52 now!
10-day predictions


NORAD ID: 47425
Int'l Code: 2021-006N
Perigee: 514.1 km
Apogee: 531.2 km
Inclination: 97.5 °
Period: 94.9 minutes
Semi major axis: 6893 km
RCS: Unknown
Launch date: January 24, 2021
Source: United States (US)
Launch site: AIR FORCE EASTERN TEST RANGE (AFETR)
aabbcc
Your satellite tracking list
Your tracking list is empty




NASA's NSSDC Master Catalog

Two Line Element Set (TLE):
1 47425U 21006N   21331.44620534  .00006668  00000-0  34204-3 0  9991
2 47425  97.4744  30.6849 0012440 253.2985 106.6883 15.16804849 47722
Source of the keplerian elements: AFSPC